Regional Weather Roundup
Issued by NWS

Home | Current Version | Previous Version | Graphics & Text | Print | Product List | Glossary On
Versions: 1 2 3 4 5 6 7 8 9 10 11 12 13 14 15 16 17 18 19 20 21 22 23 24 25 26 27 28 29 30 31 32 33 34 35 36 37 38 39 40 41 42 43 44 45 46 47 48 49 50
000
ASUS43 KMKX 122010
RWRWI

WISCONSIN REGIONAL WEATHER ROUNDUP
NATIONAL WEATHER SERVICE MILWAUKEE/SULLIVAN WI
200 PM CST TUE DEC 12 2017

NOTE: "FAIR" INDICATES FEW OR NO CLOUDS BELOW 12,000 FEET WITH NO
SIGNIFICANT WEATHER AND/OR OBSTRUCTIONS TO VISIBILITY.

WIZ001-002-006>008-014>016-023>028-122100-
NORTHWEST WISCONSIN

CITY           SKY/WX    TMP DP  RH WIND       PRES   REMARKS
SUPERIOR ARPT  CLOUDY    13   4  67 SW6       30.02F WCI   4
ASHLAND        MOSUNNY   11   2  67 S7        30.02F WCI   0
HAYWARD        CLOUDY    11  -1  58 S3        29.98F
SIREN          FLURRIES  13   4  67 S5        30.02F WCI   5
CUMBERLAND     CLOUDY    12   1  62 S5        30.00F WCI   4
RICE LAKE      PTSUNNY   13   1  60 CALM      30.03F
CHETEK         CLOUDY    13  -1  54 SW3       30.03F
LADYSMITH      CLOUDY    13  -2  51 CALM      30.02F
EAU CLAIRE     CLOUDY    13   1  59 W8        30.04F WCI   2
MENOMONIE      PTSUNNY   16   1  52 SW5       30.05F WCI   9
NEW RICHMOND   FLURRIES  15   5  63 S7        30.03F WCI   6
OSCEOLA        FLURRIES  16   8  70 S7        30.06F WCI   6
$$

WIZ003>005-009-010-017-018-122100-
NORTH CENTRAL WISCONSIN

CITY           SKY/WX    TMP DP  RH WIND       PRES   REMARKS
MANITOWISH WTR CLOUDY     8   0  70 NW7       29.94F WCI  -3
ARBOR VITAE    PTSUNNY   11   3  70 NW7       29.93F WCI   1
WOODRUFF       PTSUNNY   11   3  70 NW7       29.93F WCI   1
RHINELANDER    MOSUNNY   12   2  64 W8        29.94S WCI   0
EAGLE RIVER    CLOUDY    11   1  64 NW10      29.92S WCI  -2
LAND O LAKES   CLOUDY    12   3  67 NW8       29.93S WCI   0
PHILLIPS       CLOUDY    10  -2  57 NW3       29.97F
TOMAHAWK       SUNNY     13  -1  54 W7        29.96F WCI   3
MEDFORD        SUNNY     12  -2  53 W9        29.96F WCI  -1
MERRILL        SUNNY     15  -2  48 W8        29.97F WCI   4
$$

WIZ029-030-035-036-043>047-122100-
CENTRAL WISCONSIN

CITY           SKY/WX    TMP DP  RH WIND       PRES   REMARKS
WAUSAU         SUNNY     13   1  59 W9        29.97F WCI   1
MOSINEE        MOSUNNY   12   1  62 W14       29.99F WCI  -3
MARSHFIELD     MOSUNNY   13   0  56 W13       29.99F WCI  -2
STEVENS POINT  SUNNY     12  -1  57 W12G17    30.01F WCI  -2
WAUPACA        SUNNY     20   4  49 W12       30.01F WCI   8
WAUTOMA        NOT AVBL
WISC RAPIDS    PTSUNNY   14   1  56 NW14      30.04F WCI  -1
CAMP DOUGLAS   MOSUNNY   18   0  45 W13       30.05F WCI   4
$$

WIZ011>013-019>022-031-037>040-048>050-122100-
NORTHEAST WISCONSIN

CITY           SKY/WX    TMP DP  RH WIND       PRES   REMARKS
ANTIGO         MOSUNNY   13   2  62 NW8G17    29.93F WCI   2
SHAWANO        CLOUDY    19   5  54 W8        29.99F WCI   9
OCONTO         CLOUDY    17   4  56 NW6       29.99F WCI   9
STURGEON BAY   CLOUDY    16   5  62 N16       29.97F WCI   1
GREEN BAY      CLOUDY    19   4  51 W10       30.00F WCI   7
MANITOWOC      CLOUDY    18   8  65 NW14      29.99F WCI   4
APPLETON       PTSUNNY   18   1  49 NW12      29.98F WCI   5
CLINTONVILLE   PTSUNNY   18   1  49 NW12      29.99F WCI   5
OSHKOSH        PTSUNNY   19   6  57 W12       30.00F WCI   7
$$

WIZ032>034-041-042-053>061-122100-
SOUTHWEST WISCONSIN

CITY           SKY/WX    TMP DP  RH WIND       PRES   REMARKS
LA CROSSE      CLOUDY    20   2  45 NW6       30.09F WCI  12
SPARTA         CLOUDY    18   2  50 W7        30.08F WCI   8
VIROQUA        CLOUDY    17   4  59 W7        30.04F WCI   7
BOSCOBEL       CLOUDY    21   4  47 W8        30.10F WCI  11
PRAIRIE DU CHI CLOUDY    23   2  40 W8        30.10F WCI  14
PLATTEVILLE    CLOUDY    23   6  49 NW10      30.07F WCI  12
$$

WIZ056-057-062-063-064-067-068-122100-
SOUTH CENTRAL WISCONSIN

CITY           SKY/WX    TMP DP  RH WIND       PRES   REMARKS
REEDSBURG      CLOUDY    19  -1  42 NW8G20    30.04F WCI   8
BARABOO/DELLS  CLOUDY    19  -1  42 W9G16     30.04F WCI   7
LONE ROCK      CLOUDY    20   5  52 W12       30.08F WCI   8
MINERAL POINT  CLOUDY    23   5  46 W12       30.04F WCI  12
MADISON        PTSUNNY   19   1  45 W10G20    30.03F WCI   7
MIDDLETON      MOSUNNY   21   2  44 NW13      30.04F WCI   9
WATERTOWN      SUNNY     19   5  56 NW8       30.03S WCI   8
MONROE         CLOUDY    23  -2  33 W15       30.02F WCI  10
JANESVILLE     PTSUNNY   25   1  36 NW12G17   30.05S WCI  14
$$

WIZ051-052-058>065-066-070>072-122100-
SOUTHEAST WISCONSIN

CITY           SKY/WX    TMP DP  RH WIND       PRES   REMARKS
MILWAUKEE      MOSUNNY   21   6  52 NW13      30.01F WCI   9
WAUKESHA       MOSUNNY   18   5  57 W14       30.02F WCI   4
MILWAUKEE/TIMM MOSUNNY   19   3  49 NW15      30.03F WCI   5
RACINE         MOSUNNY   21   5  50 NW12G21   30.03F WCI   9
BURLINGTON     SUNNY     32  22  66 NW14      30.03S WCI  22
KENOSHA        MOSUNNY   21   7  54 W16       30.02F WCI   7
FOND DU LAC    MOSUNNY   17   4  56 W10       30.01F WCI   5
SHEBOYGAN      CLOUDY    17   6  62 NW16      29.99F WCI   2
WEST BEND      MOSUNNY   18   5  57 NW12G21   30.00F WCI   5
JUNEAU         SUNNY     16   4  58 W9        30.03F WCI   4
$$

LSZ147-162-122100-
LAKE SUPERIOR

STATION/POSITION TIME  TEMP    WIND        PRES    WAVE
                       AIR SEA DIR/SP/G            HT/PER
                 (UTC) (F)     (DEG/KT/KT) (MB)    (FT/S)
DEVILS ISLAND    2000   14     250/  6/  8 1017.4F
SAXON HARBOR     1940   13                 1016.6F
$$

LMZ867-665-643>646-122100-
LAKE MICHIGAN

STATION/POSITION TIME  TEMP    WIND        PRES    WAVE
                       AIR SEA DIR/SP/G            HT/PER
                 (UTC) (F)     (DEG/KT/KT) (MB)    (FT/S)
NORTHPORT PIER   2005   18     300/  6/ 26 1013.9
KEWAUNEE LAKESHO 1942   17     330/ 10/ 14 1014.7F
SHEBOYGAN LAKESH 2000   18     310/ 16/ 18 1016.9F
PORT WASHINGTON  1940   19     300/  8/ 14 1017.6F
MILWAUKEE LAKESH 1950   19     300/ 12/ 14   N/A
KENOSHA   LAKESH 2000   20     310/ 12/ 19 1016.6
$$

TC  - TEMPERATURE IN CELSIUS
VSB - VISIBILITY IN STATUTE MILES
WCI - WIND CHILL INDEX
HX  - HEAT INDEX




USA.gov is the U.S. government's official web portal to all federal, state and local government web resources and services.